Location: Newark
(45.5167°N, 11.1667°E)
Time: 01:38:47
(UTC+00:00)

A-11 Canister half - Visible Passes

Search period start: 11 December 2019 00:00
Search period end: 21 December 2019 00:00
Orbit: 1515 x 1685 km, 47.2° (Epoch: 10 December)

Date Brightness Start Highest point End Pass type
(mag) Time Alt. Az. Time Alt. Az. Time Alt. Az.
11 Dec 9.4 15:55:39 10° WNW 16:05:39 78° SSW 16:15:49 10° ESE visible
11 Dec 10.4 18:01:02 10° WNW 18:09:50 36° SW 18:18:42 10° SSE visible
12 Dec 10.4 17:38:01 10° WNW 17:46:57 38° SW 17:55:59 10° SSE visible
13 Dec 10.3 17:15:02 10° WNW 17:24:05 40° SW 17:33:14 10° SSE visible
14 Dec 10.3 16:52:04 10° WNW 17:01:12 42° SW 17:10:29 10° SSE visible
14 Dec 11.5 19:01:49 10° WSW 19:04:08 11° WSW 19:06:28 10° SW visible
15 Dec 10.3 16:29:05 10° WNW 16:38:19 44° SW 16:47:43 10° SSE visible
15 Dec 11.5 18:37:50 10° W 18:41:20 12° WSW 18:44:51 10° SW visible
16 Dec 10.3 16:06:08 10° WNW 16:15:26 47° SW 16:24:55 10° SSE visible
16 Dec 11.5 18:14:12 10° W 18:18:32 14° WSW 18:22:53 10° SSW visible
17 Dec 11.6 17:50:45 10° W 17:55:44 15° WSW 18:00:45 10° SSW visible
18 Dec 11.6 17:27:24 10° W 17:32:55 16° SW 17:38:29 10° SSW visible
19 Dec 11.6 17:04:08 10° W 17:10:06 18° SW 17:16:08 10° SSW visible
20 Dec 11.6 16:40:55 10° W 16:47:17 19° SW 16:53:44 10° SSW visible
